This demonstration page uses our WeatherBlox Daily Observations layout. Learn more.

Left ArrowRight Arrow

41.86663, -103.66717

Hourly Observations for September 20, 2021

Temp ( °F °C ) Dew Point ( °F °C ) Humidity (%) Winds ( mph kmh ) Pressure ( in mb ) Visibility ( mi km ) Precip ( " mm )
12:53 am 00:53 Cloudy with Light Rain 56 13.3 50 10 81 81 NW 9 15 29.79 1009 7 11 0.01 0.25
1:53 am 01:53 Cloudy with Light Rain 53 11.7 50 10 89 89 NW 13 20 29.80 1009 7 11 0.09 2.29
2:53 am 02:53 Cloudy with Rain 52 11.1 50 10 93 93 WNW 7 11 29.79 1009 6 10 0.13 3.30
3:53 am 03:53 Cloudy 52 11.1 49 9.4 89 89 W 8 13 29.82 1010 10 16 0.00 0.00
4:53 am 04:53 Mostly Cloudy 52 11.1 48 8.9 86 86 WNW 10 17 29.83 1010 10 16 N/A
5:53 am 05:53 Cloudy 53 11.7 49 9.4 86 86 NW 8 13 29.86 1011 10 16 N/A
6:53 am 06:53 Partly Cloudy 52 11.1 46 7.8 80 80 WNW 13 20 29.91 1013 10 16 N/A
7:53 am 07:53 Cloudy 51 10.6 45 7.2 80 80 WNW 16 26 29.96 1015 10 16 N/A
8:53 am 08:53 Cloudy 52 11.1 45 7.2 77 77 WNW 14 22 30.01 1016 10 16 0.00 0.00
9:53 am 09:53 Mostly Sunny 60 15.6 44 6.7 56 56 NW 22 35 30.03 1017 10 16 N/A
10:53 am 10:53 Mostly Cloudy 62 16.7 42 5.6 48 48 NW 14 22 30.03 1017 10 16 N/A
11:53 am 11:53 Mostly Cloudy 64 17.8 38 3.3 38 38 NW 15 24 30.04 1017 10 16 N/A
12:53 pm 12:53 Partly Cloudy 64 17.8 38 3.3 38 38 W 16 26 30.05 1018 10 16 0.00 0.00
1:53 pm 13:53 Mostly Cloudy with Light Rain 58 14.4 43 6.1 58 58 W 17 28 30.09 1019 10 16 0.00 0.00
2:53 pm 14:53 Cloudy 60 15.6 41 5 50 50 NW 24 39 30.11 1020 10 16 0.00 0.00
3:53 pm 15:53 Mostly Cloudy 59 15 39 3.9 48 48 NW 16 26 30.13 1020 10 16 0.00 0.00
4:53 pm 16:53 Mostly Cloudy 61 16.1 40 4.4 46 46 NW 13 20 30.11 1020 10 16 N/A
5:53 pm 17:53 Sunny 58 14.4 40 4.4 51 51 WNW 12 19 30.14 1021 10 16 N/A
6:53 pm 18:53 Cloudy 51 10.6 48 8.9 89 89 N 5 7 30.20 1023 10 16 0.04 1.02
7:53 pm 19:53 Clear 50 10 48 8.9 93 93 N 3 6 30.24 1024 10 16 N/A
8:53 pm 20:53 Mostly Clear 50 10 43 6.1 77 77 NW 5 7 30.28 1025 10 16 N/A
9:53 pm 21:53 Mostly Cloudy 49 9.4 43 6.1 80 80 WNW 8 13 30.28 1025 10 16 N/A
10:53 pm 22:53 Cloudy 48 8.9 41 5 77 77 NW 12 19 30.29 1026 10 16 N/A
11:53 pm 23:53 Clear 48 8.9 40 4.4 74 74 WNW 12 19 30.30 1026 10 16 N/A

Powered by AerisWeather